GW5240 Weather Reports


Display with metric or nautical units.
time (UTC)temp
F
wind
direction
speed
MPH
gust
MPH
rain 1hr
in
rain 24hr
in
rain mn
in
humidity
%
barometer
mb
20260903074327 74 158 0.0 0.0 0.00 0.00 0.00 87 1010.7
20260903073822 74 158 0.0 0.0 0.00 0.00 0.00 87 1010.8
20260903073317 74 162 0.0 0.0 0.00 0.00 0.00 87 1010.9
20260903072814 74 151 0.0 0.0 0.00 0.00 0.00 86 1011.0
20260903072309 74 151 0.0 0.0 0.00 0.00 0.00 86 1010.9
20260903071806 74 151 0.0 0.0 0.00 0.00 0.00 86 1011.0
20260903071301 74 148 0.0 0.0 0.00 0.00 0.00 86 1011.0
20260903070755 74 151 0.0 0.0 0.00 0.00 0.00 86 1010.9
20260903070251 74 164 0.0 0.0 0.00 0.00 0.00 86 1011.0
20260903065746 74 161 0.0 0.0 0.00 0.00 0.00 86 1010.9
20260903065245 74 164 0.0 0.0 0.00 0.00 0.00 85 1010.9
20260903064744 74 164 0.0 0.0 0.00 0.00 0.00 85 1011.0
20260903064240 74 164 0.0 0.0 0.00 0.00 0.00 85 1011.0
20260903063736 74 164 0.0 0.0 0.00 0.00 0.00 85 1011.1
20260903063231 74 164 0.0 0.0 0.00 0.00 0.00 85 1011.0
20260903062727 75 164 0.0 0.0 0.00 0.00 0.00 84 1011.0
20260903062226 75 164 0.0 0.0 0.00 0.00 0.00 84 1011.2
20260903061723 75 164 0.0 0.0 0.00 0.00 0.00 83 1011.2
20260903061221 75 164 0.0 0.0 0.00 0.00 0.00 83 1011.2
20260903060717 75 154 0.0 0.0 0.00 0.00 0.00 83 1011.1
20260903060212 75 160 0.0 0.0 0.00 0.00 0.00 82 1011.1
20260903055709 75 163 0.0 0.0 0.00 0.00 0.00 82 1011.1
20260903055208 76 163 0.0 0.0 0.00 0.00 0.00 81 1011.2
20260903054703 76 162 0.0 0.0 0.00 0.00 0.00 81 1011.0
20260903054158 76 177 0.0 0.0 0.00 0.00 0.00 81 1011.2
20260903053654 76 177 0.0 0.0 0.00 0.00 0.00 81 1011.2
20260903053149 76 177 0.0 0.0 0.00 0.00 0.00 81 1011.2
20260903052645 76 161 0.0 0.0 0.00 0.00 0.00 80 1011.0
20260903052141 76 158 0.0 0.0 0.00 0.00 0.00 80 1010.9
20260903051635 76 150 0.0 0.0 0.00 0.00 0.00 80 1011.2
20260903051131 77 159 0.0 0.0 0.00 0.00 0.00 80 1011.0
20260903050626 77 155 0.0 0.0 0.00 0.00 0.00 79 1011.1
20260903050121 77 160 0.0 0.0 0.00 0.00 0.00 79 1011.1
20260903045620 77 156 0.0 0.0 0.00 0.04 0.04 79 1011.4
20260903045117 77 158 0.0 0.0 0.00 0.04 0.04 78 1011.4
20260903044612 77 163 0.0 0.0 0.00 0.04 0.04 78 1011.4
20260903044108 77 155 0.0 0.0 0.00 0.04 0.04 78 1011.2
20260903043604 77 163 0.0 0.0 0.00 0.04 0.04 78 1011.3
20260903043103 77 165 0.0 0.0 0.00 0.04 0.04 78 1011.4
20260903042557 77 160 0.0 0.0 0.00 0.04 0.04 77 1011.5
20260903042053 77 161 0.0 0.0 0.00 0.04 0.04 77 1011.7
20260903041549 77 152 0.0 0.0 0.00 0.04 0.04 77 1011.5
20260903041045 77 153 0.0 0.0 0.00 0.04 0.04 76 1011.4
20260903040543 78 173 0.0 0.0 0.00 0.04 0.04 76 1011.4
20260903040040 78 155 0.0 0.0 0.00 0.04 0.04 75 1011.4
20260903035541 78 148 0.0 0.0 0.00 0.04 0.04 75 1011.4
20260903035037 78 164 0.0 0.0 0.00 0.04 0.04 74 1011.5
20260903034537 78 151 0.0 0.0 0.00 0.04 0.04 74 1011.7
20260903034032 78 151 0.0 0.0 0.00 0.04 0.04 75 1011.4
20260903033527 77 129 0.0 0.0 0.00 0.04 0.04 75 1011.6
20260903033022 77 152 0.0 0.0 0.00 0.04 0.04 75 1011.6
20260903032517 77 140 0.0 0.0 0.00 0.04 0.04 76 1011.6
20260903032013 77 164 0.0 0.0 0.00 0.04 0.04 76 1011.7
20260903031512 78 157 0.0 0.0 0.00 0.04 0.04 75 1011.6
20260903031008 78 164 0.0 0.0 0.00 0.04 0.04 74 1011.8
20260903030503 78 161 0.0 0.0 0.00 0.04 0.04 74 1011.7
20260903025959 78 151 0.0 0.0 0.00 0.04 0.04 74 1011.5
20260903025449 77 156 0.0 0.0 0.00 0.04 0.04 74 1011.6
20260903024944 77 164 0.0 0.0 0.00 0.04 0.04 74 1011.5
20260903024443 78 164 0.0 0.0 0.00 0.04 0.04 74 1011.6
20260903023938 78 164 0.0 0.0 0.00 0.04 0.04 73 1011.4
20260903023434 78 160 0.0 0.0 0.00 0.04 0.04 73 1011.6
20260903022929 78 160 0.0 0.0 0.00 0.04 0.04 73 1011.4
20260903022428 78 157 0.0 0.0 0.00 0.04 0.04 73 1011.6
20260903021927 78 164 0.0 0.0 0.00 0.04 0.04 74 1011.4
20260903021422 78 162 0.0 0.0 0.00 0.04 0.04 76 1011.3
20260903020917 78 162 0.0 0.0 0.00 0.04 0.04 76 1011.5
20260903020413 77 158 0.0 0.0 0.00 0.04 0.04 76 1011.5
20260903015907 77 161 0.0 0.0 0.00 0.04 0.04 76 1011.4
20260903015403 78 161 0.0 0.0 0.00 0.04 0.04 75 1011.5
20260903014857 78 161 0.0 0.0 0.00 0.04 0.04 75 1011.3
20260903014351 78 161 0.0 0.0 0.00 0.04 0.04 75 1011.2
20260903013846 78 161 0.0 0.0 0.00 0.04 0.04 74 1011.2
20260903013345 79 161 0.0 0.0 0.00 0.04 0.04 73 1011.2
20260903012845 79 161 0.0 0.0 0.00 0.04 0.04 72 1011.0
20260903012339 79 161 0.0 0.0 0.00 0.04 0.04 72 1011.4
20260903011832 80 163 0.0 0.0 0.00 0.04 0.04 72 1011.1
20260903011332 80 163 0.0 0.0 0.00 0.04 0.04 71 1010.9
20260903010822 80 162 0.0 0.0 0.00 0.04 0.04 70 1011.0
20260903010318 80 163 0.0 0.0 0.00 0.04 0.04 70 1010.9
20260903005815 81 163 0.0 0.0 0.00 0.04 0.04 69 1010.8
20260903005310 81 163 0.0 0.0 0.00 0.04 0.04 68 1010.8
20260903004801 82 163 0.0 0.0 0.00 0.04 0.04 67 1011.0
20260903004256 82 163 0.0 0.0 0.00 0.04 0.04 66 1010.8
20260903003752 82 163 0.0 0.0 0.00 0.04 0.04 66 1010.8
20260903003252 83 163 0.0 0.0 0.00 0.04 0.04 65 1010.8
20260903002746 83 163 0.0 0.0 0.00 0.04 0.04 64 1011.0
20260903002240 84 167 0.0 0.0 0.00 0.04 0.04 63 1011.0
20260903001737 84 168 0.0 0.0 0.00 0.04 0.04 63 1010.7
20260903001236 84 167 0.0 0.0 0.00 0.04 0.04 62 1011.0
20260903000731 85 166 0.0 0.0 0.00 0.04 0.04 61 1010.9
20260903000233 85 152 0.0 0.0 0.00 0.04 0.04 61 1010.8
20260902235730 85 166 0.0 0.0 0.00 0.04 0.04 60 1010.8
20260902235225 85 178 1.0 2.0 0.00 0.04 0.04 60 1010.8
20260902234724 86 176 0.0 2.0 0.00 0.04 0.04 60 1010.7
20260902234223 86 169 0.0 0.0 0.00 0.04 0.04 59 1010.9
20260902233717 86 139 0.0 2.0 0.00 0.04 0.04 60 1010.9
20260902233212 86 173 0.0 0.0 0.00 0.04 0.04 58 1010.8
20260902232711 86 164 2.0 2.0 0.00 0.04 0.04 58 1010.9
20260902232210 87 159 0.0 0.0 0.00 0.04 0.04 57 1010.9
20260902231705 87 164 0.0 0.0 0.00 0.04 0.04 57 1010.9
20260902231200 87 167 2.0 2.0 0.00 0.04 0.04 56 1011.0
20260902230655 87 162 0.0 0.0 0.00 0.04 0.04 56 1010.9
20260902230154 87 165 2.0 3.0 0.00 0.04 0.04 55 1010.8
20260902225649 88 176 1.0 2.0 0.00 0.04 0.04 54 1011.1
20260902225143 88 153 2.0 2.0 0.00 0.04 0.04 54 1010.9
20260902224642 88 76 1.0 2.0 0.00 0.04 0.04 54 1011.1
20260902224137 88 174 0.0 2.0 0.00 0.04 0.04 54 1010.9
20260902223633 89 234 2.0 2.0 0.00 0.04 0.04 52 1010.7
20260902223132 90 151 2.0 2.0 0.00 0.04 0.04 51 1010.9
20260902222626 91 191 1.0 2.0 0.00 0.04 0.04 50 1010.9
20260902222125 91 178 0.0 2.0 0.00 0.04 0.04 50 1010.9
20260902221619 91 172 0.0 0.0 0.00 0.04 0.04 49 1010.9
20260902221114 92 179 0.0 0.0 0.00 0.04 0.04 48 1010.8
20260902220610 91 174 0.0 0.0 0.00 0.04 0.04 48 1011.0
20260902220104 92 167 2.0 2.0 0.00 0.04 0.04 48 1010.9
20260902215601 92 178 0.0 2.0 0.00 0.04 0.04 48 1011.0
20260902215055 92 202 0.0 2.0 0.00 0.04 0.04 48 1011.0
20260902214550 90 176 0.0 0.0 0.00 0.04 0.04 50 1011.1
20260902214049 90 170 1.0 2.0 0.00 0.04 0.04 51 1011.1
20260902213545 90 46 3.0 3.0 0.00 0.04 0.04 49 1011.2
20260902213044 89 186 1.0 2.0 0.00 0.04 0.04 50 1011.1
20260902212539 90 48 2.0 3.0 0.00 0.04 0.04 50 1011.1
20260902212036 90 89 2.0 3.0 0.00 0.04 0.04 50 1011.2
20260902211532 91 206 0.0 2.0 0.00 0.04 0.04 50 1011.4
20260902211026 91 164 1.0 3.0 0.00 0.04 0.04 49 1011.1
20260902210521 90 197 1.0 2.0 0.00 0.04 0.04 50 1011.3
20260902210020 90 92 2.0 2.0 0.00 0.04 0.04 50 1011.3
20260902205514 90 202 1.0 2.0 0.00 0.04 0.04 50 1011.3
20260902205010 91 93 1.0 2.0 0.00 0.04 0.04 50 1011.3
20260902204509 91 171 0.0 2.0 0.00 0.04 0.04 49 1011.3
20260902204005 91 176 2.0 3.0 0.00 0.04 0.04 49 1011.3
20260902203500 92 189 0.0 2.0 0.00 0.04 0.04 49 1011.3
20260902202958 90 167 0.0 0.0 0.00 0.04 0.04 50 1011.4
20260902202455 90 178 0.0 2.0 0.00 0.04 0.04 50 1011.6
20260902201952 91 188 2.0 2.0 0.00 0.04 0.04 49 1011.6
20260902201447 90 288 2.0 3.0 0.00 0.04 0.04 50 1011.7
20260902200946 89 212 2.0 3.0 0.00 0.04 0.04 50 1011.7
20260902200441 89 217 2.0 3.0 0.00 0.04 0.04 51 1011.8
20260902195937 89 198 0.0 2.0 0.00 0.04 0.04 51 1011.8
20260902195432 89 169 1.0 2.0 0.00 0.04 0.04 51 1011.9
20260902194931 89 184 1.0 2.0 0.00 0.04 0.04 51 1012.0
20260902194426 88 234 1.0 2.0 0.00 0.04 0.04 52 1012.1
20260902193921 88 176 1.0 2.0 0.00 0.04 0.04 52 1012.1
20260902193417 88 273 2.0 3.0 0.00 0.04 0.04 52 1012.1
20260902192916 88 236 2.0 3.0 0.00 0.04 0.04 52 1012.2
20260902192415 87 192 1.0 2.0 0.00 0.04 0.04 54 1012.3
20260902191914 88 171 3.0 3.0 0.00 0.04 0.04 54 1012.3
20260902191410 88 175 1.0 2.0 0.00 0.04 0.04 53 1012.4
20260902190910 87 134 1.0 2.0 0.00 0.04 0.04 54 1012.3
20260902190405 87 206 3.0 3.0 0.00 0.04 0.04 53 1012.3
20260902185901 87 195 2.0 2.0 0.00 0.04 0.04 54 1012.3
20260902185356 87 180 0.0 0.0 0.00 0.04 0.04 54 1012.2
20260902184852 87 175 0.0 0.0 0.00 0.04 0.04 55 1012.3
20260902184347 86 167 2.0 2.0 0.00 0.04 0.04 56 1012.3
20260902183842 86 166 4.0 5.0 0.00 0.04 0.04 54 1012.3
20260902183338 85 68 2.0 3.0 0.00 0.04 0.04 56 1012.3
20260902182834 85 290 2.0 2.0 0.00 0.04 0.04 55 1012.4
20260902182330 85 66 0.0 2.0 0.00 0.04 0.04 57 1012.4
20260902181826 85 176 2.0 2.0 0.00 0.04 0.04 57 1012.3
20260902181321 85 5 5.0 5.0 0.00 0.04 0.04 56 1012.5
20260902180815 84 145 1.0 2.0 0.00 0.04 0.04 59 1012.5
20260902180311 84 94 2.0 3.0 0.00 0.04 0.04 59 1012.6
20260902175806 83 173 2.0 3.0 0.00 0.04 0.04 57 1012.8
20260902175306 83 124 3.0 3.0 0.00 0.04 0.04 57 1013.1
20260902174757 84 211 3.0 3.0 0.00 0.04 0.04 57 1013.3
20260902174254 84 147 2.0 2.0 0.00 0.04 0.04 59 1013.2
20260902173749 83 150 0.0 0.0 0.00 0.04 0.04 60 1013.4
20260902173248 82 164 0.0 0.0 0.00 0.04 0.04 62 1013.5
20260902172743 83 91 2.0 2.0 0.00 0.04 0.04 61 1013.7
20260902172238 82 132 1.0 2.0 0.00 0.04 0.04 62 1013.8
20260902171733 83 204 2.0 3.0 0.00 0.04 0.04 61 1013.6
20260902171228 82 158 1.0 2.0 0.00 0.04 0.04 63 1013.8
20260902170724 81 164 0.0 0.0 0.00 0.04 0.04 63 1013.9
20260902170219 82 183 2.0 3.0 0.00 0.04 0.04 62 1014.0
20260902165720 81 162 2.0 2.0 0.00 0.04 0.04 64 1013.7
20260902165214 81 188 1.0 2.0 0.00 0.04 0.04 63 1013.7
20260902164709 82 176 2.0 3.0 0.00 0.04 0.04 62 1013.5
20260902164208 82 158 0.0 0.0 0.00 0.04 0.04 62 1013.7
20260902163703 81 172 1.0 2.0 0.00 0.04 0.04 62 1013.5
20260902163203 80 110 2.0 3.0 0.00 0.04 0.04 64 1013.5
20260902162701 80 155 3.0 5.0 0.00 0.04 0.04 63 1013.6
20260902162156 80 177 0.0 0.0 0.00 0.04 0.04 66 1013.5
20260902161651 80 196 2.0 2.0 0.00 0.04 0.04 63 1013.6
20260902161147 80 162 2.0 2.0 0.00 0.04 0.04 65 1013.5
20260902160644 81 5 1.0 2.0 0.00 0.04 0.04 64 1013.8
20260902160138 80 181 0.0 0.0 0.00 0.04 0.04 65 1013.5
20260902155637 80 171 2.0 3.0 0.00 0.04 0.04 64 1013.3
20260902155135 80 152 0.0 0.0 0.00 0.04 0.04 65 1013.2
20260902154630 80 128 2.0 3.0 0.00 0.04 0.04 64 1013.2
20260902154125 80 166 0.0 0.0 0.00 0.04 0.04 64 1013.4
20260902153625 80 71 2.0 3.0 0.00 0.04 0.04 65 1013.2
20260902153115 80 164 0.0 0.0 0.00 0.04 0.04 66 1013.3
20260902152611 79 162 0.0 0.0 0.00 0.04 0.04 65 1013.2
20260902152106 78 155 0.0 0.0 0.00 0.04 0.04 67 1013.2
20260902151602 77 156 1.0 2.0 0.00 0.04 0.04 67 1013.4
20260902151100 77 160 0.0 2.0 0.00 0.04 0.04 71 1013.2
20260902150555 76 169 0.0 0.0 0.00 0.04 0.04 70 1013.3
20260902150051 76 111 1.0 2.0 0.00 0.04 0.04 71 1013.2
20260902145546 75 158 0.0 2.0 0.00 0.04 0.04 74 1013.2
20260902145040 74 185 2.0 2.0 0.00 0.04 0.04 75 1013.2
20260902144537 73 164 0.0 0.0 0.00 0.04 0.04 75 1013.3
20260902144032 72 166 0.0 0.0 0.00 0.04 0.04 78 1013.2
20260902143531 71 159 0.0 0.0 0.00 0.04 0.04 79 1013.5
20260902143027 71 154 1.0 2.0 0.00 0.04 0.04 79 1013.4
20260902142523 70 170 1.0 2.0 0.00 0.04 0.04 80 1013.5
20260902142019 70 120 1.0 2.0 0.00 0.04 0.04 81 1013.4
20260902141518 70 89 1.0 2.0 0.00 0.04 0.04 81 1013.4
20260902141013 69 172 1.0 2.0 0.00 0.04 0.04 82 1013.6
20260902140508 69 168 2.0 2.0 0.00 0.04 0.04 84 1013.6
20260902140003 68 175 2.0 3.0 0.00 0.04 0.04 84 1013.7
20260902135457 68 152 0.0 0.0 0.00 0.04 0.04 84 1013.4
20260902134951 69 160 1.0 2.0 0.00 0.04 0.04 84 1013.5
20260902134447 69 167 0.0 0.0 0.00 0.04 0.04 84 1013.5
20260902133942 68 341 5.0 5.0 0.00 0.04 0.04 84 1013.5
20260902133437 68 190 2.0 2.0 0.00 0.04 0.04 85 1013.5
20260902132932 68 154 0.0 0.0 0.00 0.04 0.04 85 1013.6
20260902132427 68 130 0.0 2.0 0.00 0.04 0.04 86 1013.5
20260902131921 68 160 0.0 0.0 0.00 0.04 0.04 87 1013.6
20260902131419 67 158 0.0 0.0 0.00 0.04 0.04 88 1013.6
20260902130918 67 172 0.0 2.0 0.00 0.04 0.04 88 1013.4
20260902130414 66 119 1.0 2.0 0.00 0.04 0.04 89 1013.1
20260902125914 66 174 0.0 0.0 0.00 0.04 0.04 89 1013.2
20260902125410 66 174 1.0 2.0 0.00 0.04 0.04 89 1013.4
20260902124906 66 154 0.0 0.0 0.00 0.04 0.04 90 1013.5
20260902124402 66 233 2.0 3.0 0.00 0.04 0.04 90 1013.6
20260902123856 66 165 0.0 0.0 0.00 0.04 0.04 91 1013.5
20260902123353 66 177 2.0 2.0 0.00 0.04 0.04 91 1013.4
20260902122851 66 152 0.0 0.0 0.00 0.04 0.04 92 1013.6
20260902122348 66 158 0.0 0.0 0.00 0.04 0.04 93 1013.3
20260902121847 65 168 0.0 0.0 0.00 0.04 0.04 94 1013.5
20260902121342 65 169 0.0 0.0 0.00 0.04 0.04 94 1013.4
20260902120838 65 164 0.0 0.0 0.00 0.04 0.04 94 1013.3
20260902120334 65 160 0.0 0.0 0.00 0.04 0.04 94 1013.3
20260902115828 64 137 1.0 2.0 0.00 0.04 0.04 94 1013.5
20260902115325 64 156 0.0 0.0 0.00 0.04 0.04 94 1013.5
20260902114821 64 156 0.0 0.0 0.00 0.04 0.04 94 1013.6
20260902114317 64 156 0.0 0.0 0.00 0.04 0.04 94 1013.3
20260902113817 65 175 0.0 0.0 0.00 0.04 0.04 94 1013.5
20260902113312 65 151 0.0 0.0 0.00 0.04 0.04 94 1013.5
20260902112811 65 148 0.0 0.0 0.00 0.04 0.04 94 1013.5
20260902112308 64 169 0.0 0.0 0.00 0.04 0.04 94 1013.9
20260902111803 64 173 0.0 0.0 0.00 0.04 0.04 94 1013.8
20260902111259 64 177 0.0 0.0 0.00 0.04 0.04 94 1014.0
20260902110755 64 172 0.0 0.0 0.00 0.04 0.04 94 1014.0
20260902110251 64 172 0.0 2.0 0.00 0.04 0.04 94 1013.8
20260902105750 64 164 0.0 0.0 0.00 0.04 0.04 94 1013.7
20260902105245 64 167 0.0 0.0 0.00 0.04 0.04 94 1014.0
20260902104741 64 158 0.0 0.0 0.00 0.04 0.04 94 1014.2
20260902104237 64 170 0.0 0.0 0.00 0.04 0.04 94 1014.4
20260902103736 64 170 0.0 0.0 0.00 0.04 0.04 94 1014.1
20260902103231 65 170 0.0 0.0 0.00 0.04 0.04 94 1014.2
20260902102726 65 170 0.0 0.0 0.00 0.04 0.04 94 1014.2
20260902102224 65 172 0.0 0.0 0.00 0.04 0.04 93 1014.3
20260902101719 65 169 0.0 0.0 0.00 0.04 0.04 94 1014.0
20260902101214 65 169 0.0 0.0 0.00 0.04 0.04 93 1014.1
20260902100713 65 176 0.0 0.0 0.00 0.04 0.04 93 1013.8
20260902100208 65 176 0.0 0.0 0.00 0.04 0.04 93 1013.8
20260902095708 65 181 0.0 0.0 0.00 0.04 0.04 93 1013.6
20260902095208 65 181 0.0 0.0 0.00 0.04 0.04 93 1013.6
20260902094702 65 168 0.0 0.0 0.00 0.04 0.04 93 1013.3
20260902094159 65 163 0.0 0.0 0.00 0.04 0.04 93 1013.2
20260902093658 65 174 0.0 0.0 0.00 0.04 0.04 93 1013.2
20260902093153 65 173 0.0 0.0 0.00 0.04 0.04 93 1012.9
20260902092648 66 177 0.0 0.0 0.00 0.04 0.04 93 1012.9
20260902092142 66 176 0.0 0.0 0.00 0.04 0.04 93 1012.8
20260902091637 66 172 0.0 0.0 0.00 0.04 0.04 93 1012.4
20260902091134 66 175 0.0 0.0 0.00 0.04 0.04 93 1012.0
20260902090629 66 176 0.0 0.0 0.00 0.04 0.04 93 1012.1
20260902090128 66 146 0.0 0.0 0.00 0.04 0.04 93 1011.9
20260902085623 66 141 0.0 0.0 0.00 0.04 0.04 93 1012.0
20260902085118 66 151 1.0 2.0 0.00 0.04 0.04 93 1012.0
20260902084615 66 126 3.0 3.0 0.00 0.04 0.04 93 1012.0
20260902084110 66 158 1.0 2.0 0.00 0.04 0.04 94 1012.0
20260902083605 66 144 1.0 2.0 0.00 0.04 0.04 94 1012.1
20260902083105 65 150 0.0 0.0 0.00 0.04 0.04 94 1012.4
20260902082600 65 131 0.0 0.0 0.00 0.04 0.04 94 1012.6
20260902082057 65 151 0.0 0.0 0.00 0.04 0.04 94 1012.7
20260902081554 65 151 0.0 0.0 0.00 0.04 0.04 93 1013.1
20260902081048 65 151 0.0 0.0 0.00 0.04 0.04 93 1013.3
20260902080543 65 141 0.0 0.0 0.00 0.04 0.04 93 1013.1
20260902080040 65 143 0.0 0.0 0.00 0.04 0.04 92 1013.2
20260902075539 66 140 1.0 2.0 0.00 0.04 0.04 92 1013.1
20260902075035 66 174 0.0 0.0 0.00 0.04 0.04 91 1013.5